Regional Weather Roundup
Issued by NWS

Home | Current Version | Previous Version | Text Only | Print | Product List | Glossary On
Versions: 1 2 3 4 5 6 7 8 9 10 11 12 13 14 15 16 17 18 19 20 21 22 23 24 25 26 27 28 29 30 31 32 33 34 35 36 37 38 39 40 41 42 43 44 45 46 47 48 49 50
000
ASUS46 KSEW 171510
RWRWA

WASHINGTON REGIONAL WEATHER ROUNDUP
NATIONAL WEATHER SERVICE SEATTLE WA
700 AM PST TUE JAN 17 2017

NOTE:"FAIR" INDICATES FEW OR NO CLOUDS BELOW 12,000 FEET WITH NO
SIGNIFICANT WEATHER AND/OR OBSTRUCTIONS TO VISIBILITY.

WAZ507-509-555>559-171600-
SEATTLE, TACOMA, EVERETT, AND VICINITY

CITY           SKY/WX    TMP DP  RH WIND       PRES   REMARKS
EVERETT        CLOUDY    42  35  76 SE8       29.76F
BOEING FIELD   CLOUDY    41  38  89 S7        29.79F
RENTON         CLOUDY    40  32  73 VRB6      29.78F
SEATAC AIRPORT CLOUDY    41  37  86 SE5       29.78F
JBLM-MCCHORD   CLOUDY    37  37  99 S3        29.78F
PUYALLUP         N/A     37  37 100 CALM      29.79F
BREMERTON      CLOUDY    37  36  93 SW3       29.82F
JBLM-FT LEWIS  MIX PCPN  37  37 100 SE7       29.77F
TACOMA NARROWS CLOUDY    38  38 100 CALM      29.79F
$$

WAZ001-503-506-510-514-515-171600-
NORTH INTERIOR

CITY           SKY/WX    TMP DP  RH WIND       PRES   REMARKS
BELLINGHAM     CLOUDY    53  37  54 SE18      29.67F
FRIDAY HARBOR  CLOUDY    48  35  60 SE24G41   29.66F
EASTSOUND      CLOUDY    50  32  50 S14G28    29.63F
PORT ANGELES   LGT RAIN  39  39 100 CALM      29.62F
EDIZ HOOK      CLOUDY    42  40  93 W8        29.62F
PORT TOWNSEND    N/A     46  34  61 SE10G22   29.70F
NAS WHIDBEY    CLOUDY    51  33  50 S33G43    29.72F
ARLINGTON      NOT AVBL
BURLINGTON     CLOUDY    54  37  54 SE13G22   29.69F
$$

WAZ020-022-039-040-504-511-512-171600-
SOUTHWEST INTERIOR

CITY           SKY/WX    TMP DP  RH WIND       PRES   REMARKS
SHELTON        CLOUDY    41  37  86 N5        29.76F
OLYMPIA        LGT RAIN  41  29  62 S9        29.79F
CHEHALIS       CLOUDY    41  30  65 S7        29.82F
KELSO          CLOUDY    29  21  72 SE15G22   29.90F WCI  18
VANCOUVER      CLOUDY    28  17  63 SE10      29.94F WCI  19
SCAPPOOSE, OR  CLOUDY    28  21  75 S3        29.93F
PORTLAND, OR   MOCLDY    27  17  66 SE12      29.94F WCI  17
$$

WAZ021-516-517-171600-
WASHINGTON COAST

CITY           SKY/WX    TMP DP  RH WIND       PRES   REMARKS
FORKS          LGT RAIN  46  45  96 S10G29    29.62F FOG
HOQUIAM        LGT RAIN  42  37  82 NE14      29.72F
ASTORIA, OR    CLOUDY    42  30  62 E5        29.78F
$$

WAZ019-023-024-040-567>569-171600-
CASCADE MOUNTAINS AND COLUMBIA GORGE

CITY           SKY/WX    TMP DP  RH WIND       PRES   REMARKS
STAMPEDE PASS  NOT AVBL
TROUTDALE, OR  CLOUDY    25  16  68 E20G41    29.98R WCI  11
THE DALLES, OR CLOUDY    17   9  70 CALM      30.22F
$$

WAZ026-027-041>044-520-521-171600-
EAST SLOPES

CITY           SKY/WX    TMP DP  RH WIND       PRES   REMARKS
OMAK           CLOUDY    19  11  70 S7        30.09F
WENATCHEE      CLOUDY    12   9  87 SE10      30.11F WCI  -1
ELLENSBURG     CLOUDY    16   9  74 CALM      30.06F
YAKIMA         CLOUDY    16  10  77 E3        30.16R HAZE
$$

WAZ028-034-035-171600-
COLUMBIA BASIN

CITY           SKY/WX    TMP DP  RH WIND       PRES   REMARKS
EPHRATA        CLOUDY    11   4  73 CALM      30.14S
MOSES LAKE     CLOUDY    12   7  80 CALM      30.16R
PASCO          CLOUDY    12  10  92 E3        30.24S
HERMISTON, OR  CLOUDY     8   3  80 CALM      30.20S
$$

WAZ036>038-171600-
NORTHEAST WASHINGTON

CITY           SKY/WX    TMP DP  RH WIND       PRES   REMARKS
SPOKANE GEIGER LGTSLEET  17  14  88 CALM      30.04R
SPOKANE FELTS  CLOUDY    17  14  88 CALM      30.08F FOG
FAIRCHILD AFB  CLOUDY    16  16  99 N3        30.03R
COEURDALENE,ID FLURRIES  15  13  91 E3        30.04F
DEER PARK      CLOUDY    16  12  84 NW5       30.07S
$$

WAZ029>033-171600-
SOUTHEAST WASHINGTON

CITY           SKY/WX    TMP DP  RH WIND       PRES   REMARKS
PULLMAN        CLOUDY    26  17  68 SE18G29   30.03S WCI  13
LEWISTON, ID   CLOUDY    27  16  63 S17G26    30.09S WCI  14
WALLA WALLA    CLOUDY    10   5  80 CALM      30.12F
PENDLETON, OR  CLOUDY     6   3  87 NW3       30.10R FOG
$$



USA.gov is the U.S. government's official web portal to all federal, state and local government web resources and services.